Karlovy Vary, Czech Republic

5:31 AM CEST on May 28, 2017 (GMT +0200)
Karlovy Vary

Weather History for LKKV - March, 2014

Change the Weather History Date:

Thursday, March 27, 2014

  Actual Average (EDQM) Record (EDQM)
Temperature  
Mean Temperature 44 °F -  
Max Temperature 52 °F 47 °F 60 °F (2003)
Min Temperature 36 °F 33 °F 18 °F (2013)
Degree Days  
Heating Degree Days 21    
Moisture  
Dew Point 32 °F    
Average Humidity 57    
Maximum Humidity 75    
Minimum Humidity 35    
Precipitation  
Precipitation 0.00 in - - ()
Sea Level Pressure  
Sea Level Pressure 29.93 in    
Wind  
Wind Speed 12 mph ()    
Max Wind Speed 20 mph    
Max Gust Speed -    
Visibility 10.0 miles    
Events      
Averages and records for this station are not official NWS values.
T = Trace of Precipitation, MM = Missing Value Source: Averaged Metar Reports

Daily Weather History Graph

Daily Weather History Graph

Search for Another Location

Airport or City:

Trip Planner

Search our weather history database for the weather conditions in past years. The results will help you decide how hot, cold, wet, or windy it might be!

Date:

Astronomy

Mar. 27, 2014 Rise Set
Actual Time 5:56 AM CET 6:32 PM CET
Civil Twilight 5:23 AM CET 7:04 PM CET
Nautical Twilight 4:44 AM CET 7:43 PM CET
Astronomical Twilight 4:04 AM CET 8:24 PM CET
Moon 3:57 AM CET (3/27) 2:40 PM CET (3/27)
Length of Visible Light 13h 41m
Length of Day
12h 35m
Waning Crescent, 15% of the Moon is Illuminated
Mar 27
Waning Crescent
Mar 30
New
Apr 7
First Quarter
Apr 15
Full
Apr 22
Last Quarter

Hourly Weather History & Observations

Time (CET) Temp. Windchill Dew Point Humidity Pressure Visibility Wind Dir Wind Speed Gust Speed Precip Events Conditions
12:00 AM 40 °F - 30 °F 58%  in 19 mi East 11.2 mph - -   Partly Cloudy
12:00 AM 39.2 °F 32.0 °F 30.2 °F 70% 29.98 in 6.2 mi East 11.5 mph - N/A   Scattered Clouds
1:00 AM 40 °F - 30 °F 56%  in 16 mi East 15.7 mph - -   Mostly Cloudy
1:00 AM 39.2 °F 30.8 °F 30.2 °F 70% 29.95 in - East 15.0 mph - N/A   Clear
2:00 AM 38 °F - 29 °F 60%  in 16 mi ESE 15.7 mph - -   Mostly Cloudy
2:00 AM 37.4 °F 28.9 °F 30.2 °F 75% 29.95 in - ESE 13.8 mph - N/A   Clear
3:00 AM 37 °F - 29 °F 64%  in 12 mi ENE 11.2 mph - -   Mostly Cloudy
3:00 AM 37.4 °F 29.8 °F 30.2 °F 75% 29.95 in - ENE 11.5 mph - N/A   Clear
4:00 AM 37 °F - 30 °F 67%  in 12 mi ENE 11.2 mph - -   Mostly Cloudy
4:00 AM 37.4 °F 30.3 °F 30.2 °F 75% 29.95 in - ENE 10.4 mph - N/A   Clear
5:00 AM 37 °F - 30 °F 67%  in 12 mi NE 8.9 mph - -   Overcast
5:00 AM 37.4 °F 31.4 °F 30.2 °F 75% 29.92 in - NE 8.1 mph - N/A   Clear
6:00 AM 37 °F - 30 °F 67%  in 16 mi ENE 8.9 mph - -   Mostly Cloudy
6:00 AM 37.4 °F 30.8 °F 30.2 °F 75% 29.92 in - ENE 9.2 mph - N/A   Clear
7:00 AM 37 °F - 30 °F 67%  in 19 mi ENE 11.2 mph - -   Scattered Clouds
7:00 AM 37.4 °F 30.3 °F 30.2 °F 75% 29.95 in 6.2 mi ENE 10.4 mph - N/A   Partly Cloudy
7:30 AM 37.4 °F 30.3 °F 30.2 °F 75% 29.95 in - ENE 10.4 mph - N/A   Clear
8:00 AM 40 °F - 31 °F 60%  in 16 mi ENE 15.7 mph - -   Mostly Cloudy
8:00 AM 39.2 °F 31.6 °F 30.2 °F 70% 29.95 in - East 12.7 mph - N/A   Clear
8:30 AM 41.0 °F 33.1 °F 30.2 °F 65% 29.95 in - ENE 15.0 mph - N/A   Clear
9:00 AM 41 °F - 31 °F 56%  in 19 mi ENE 15.7 mph - -   Partly Cloudy
9:00 AM 41.0 °F 32.8 °F 30.2 °F 65% 29.95 in - ENE 16.1 mph - N/A   Clear
9:30 AM 42.8 °F 35.8 °F 32.0 °F 66% 29.95 in - ENE 13.8 mph - N/A   Clear
10:00 AM 44 °F - 32 °F 51%  in 25 mi ENE 13.4 mph - -   Scattered Clouds
10:00 AM 44.6 °F 38.4 °F 32.0 °F 61% 29.95 in - ENE 12.7 mph - N/A   Clear
10:30 AM 44.6 °F 38.1 °F 32.0 °F 61% 29.95 in 6.2 mi ENE 13.8 mph - N/A   Partly Cloudy
11:00 AM 48 °F - 33 °F 44%  in 31 mi ENE 13.4 mph - -   Partly Cloudy
11:00 AM 48.2 °F - 33.8 °F 58% 29.92 in 6.2 mi ENE 12.7 mph - N/A   Partly Cloudy
11:30 AM 50.0 °F - 33.8 °F 54% 29.92 in 6.2 mi East 12.7 mph - N/A   Scattered Clouds
12:00 PM 50 °F - 34 °F 42%  in 31 mi ESE 15.7 mph - -   Partly Cloudy
12:00 PM 48.2 °F - 33.8 °F 58% 29.92 in 6.2 mi ESE 16.1 mph - N/A   Scattered Clouds
12:30 PM 50.0 °F - 33.8 °F 54% 29.92 in 6.2 mi ESE 17.3 mph - N/A   Scattered Clouds
1:00 PM 49 °F - 30 °F 35%  in 31 mi ESE 20.1 mph - -   Mostly Cloudy
1:00 PM 50.0 °F - 30.2 °F 47% 29.92 in 6.2 mi ESE 19.6 mph - N/A   Mostly Cloudy
1:30 PM 51.8 °F - 32.0 °F 47% 29.92 in 6.2 mi ESE 17.3 mph - N/A   Mostly Cloudy
2:00 PM 52 °F - 32 °F 35%  in 31 mi East 15.7 mph - -   Mostly Cloudy
2:00 PM 51.8 °F - 33.8 °F 50% 29.89 in 6.2 mi East 13.8 mph - N/A   Mostly Cloudy
2:30 PM 51.8 °F - 33.8 °F 50% 29.89 in 6.2 mi ESE 13.8 mph - N/A   Mostly Cloudy
3:00 PM 51 °F - 32 °F 36%  in 31 mi East 15.7 mph - -   Partly Cloudy
3:00 PM 51.8 °F - 32.0 °F 47% 29.89 in 6.2 mi ESE 16.1 mph - N/A   Scattered Clouds
3:30 PM 50.0 °F - 32.0 °F 50% 29.89 in 6.2 mi East 13.8 mph - N/A   Scattered Clouds
4:00 PM 51 °F - 33 °F 38%  in 31 mi East 15.7 mph - -   Partly Cloudy
4:00 PM 50.0 °F - 32.0 °F 50% 29.89 in 6.2 mi East 15.0 mph - N/A   Scattered Clouds
4:30 PM 50.0 °F - 33.8 °F 54% 29.89 in - East 13.8 mph - N/A   Clear
5:00 PM 50 °F - 34 °F 41%  in 31 mi East 13.4 mph - -   Mostly Cloudy
5:00 PM 50.0 °F - 33.8 °F 54% 29.89 in 6.2 mi East 11.5 mph - N/A   Partly Cloudy
5:30 PM 50.0 °F - 33.8 °F 54% 29.89 in - East 11.5 mph - N/A   Clear
6:00 PM 48 °F - 34 °F 46%  in 31 mi East 13.4 mph - -   Mostly Cloudy
6:00 PM 48.2 °F - 33.8 °F 58% 29.89 in - East 13.8 mph - N/A   Clear
6:30 PM 48.2 °F - 33.8 °F 58% 29.92 in - East 13.8 mph - N/A   Clear
7:00 PM 47 °F - 32 °F 45%  in 31 mi East 15.7 mph - -   Partly Cloudy
7:00 PM 46.4 °F 40.4 °F 32.0 °F 57% 29.92 in - East 13.8 mph - N/A   Clear
7:30 PM 46.4 °F 41.1 °F 32.0 °F 57% 29.92 in - East 11.5 mph - N/A   Clear
8:00 PM 47 °F - 32 °F 44%  in 31 mi East 13.4 mph - -   Scattered Clouds
8:00 PM 46.4 °F 40.7 °F 32.0 °F 57% 29.92 in - East 12.7 mph - N/A   Clear
9:00 PM 45 °F - 31 °F 47%  in 31 mi East 11.2 mph - -   Scattered Clouds
9:00 PM 46.4 °F 41.1 °F 32.0 °F 57% 29.95 in - East 11.5 mph - N/A   Clear
10:00 PM 45 °F - 33 °F 51%  in 31 mi East 11.2 mph - -  
10:00 PM 44.6 °F 38.8 °F 33.8 °F 66% 29.95 in - East 11.5 mph - N/A   Clear
11:00 PM 42 °F - 33 °F 59%  in 31 mi ENE 8.9 mph - -  
11:00 PM 42.8 °F 37.5 °F 33.8 °F 70% 29.98 in - ENE 9.2 mph - N/A   Clear